EW6283 Weather Reports


time (UTC)temp
F
wind
direction
speed
knots
gust
knots
rain 1hr
in
rain 24hr
in
rain mn
in
humidity
%
barometer
mb
20260507015528 47 53 1.7 3.5 0.00 0.64 0.64 94 1007.0
20260507015027 47 15 1.7 3.5 0.04 0.64 0.64 94 1007.1
20260507014644 47 68 0.0 3.5 0.05 0.64 0.64 94 1007.0
20260507014027 47 56 2.6 3.5 0.05 0.64 0.64 94 1006.9
20260507013528 47 83 0.9 3.5 0.06 0.63 0.63 94 1006.9
20260507013028 47 83 0.0 3.5 0.11 0.63 0.63 94 1006.9
20260507012527 47 66 0.9 6.1 0.12 0.63 0.63 94 1006.8
20260507012144 47 58 0.9 6.1 0.12 0.62 0.62 94 1006.8
20260507011528 47 69 1.7 5.2 0.08 0.61 0.61 95 1006.9
20260507011029 47 37 3.5 7.0 0.17 0.60 0.60 95 1006.9
20260507010642 47 81 4.3 7.0 0.09 0.59 0.59 95 1006.8
20260507010028 47 52 3.5 7.0 0.09 0.57 0.57 94 1006.5
20260507005528 47 97 0.9 5.2 0.07 0.56 0.56 94 1006.6
20260507005027 47 48 3.5 6.1 0.07 0.56 0.56 94 1006.3
20260507004644 47 70 2.6 6.1 0.07 0.56 0.56 94 1006.2
20260507004028 47 68 2.6 7.8 0.00 0.55 0.55 94 1006.2
20260507003643 47 92 5.2 10.4 0.00 0.55 0.55 94 1006.1
20260507003029 47 79 7.0 10.4 0.00 0.54 0.54 94 1006.1
20260507002528 48 136 1.7 8.7 0.00 0.54 0.54 94 1006.4
20260507002142 48 50 1.7 8.7 0.00 0.54 0.54 94 1005.9
20260507001643 48 52 6.1 7.8 0.00 0.54 0.54 93 1005.9
20260507001027 49 79 3.5 7.0 0.00 0.54 0.54 93 1005.8
20260507000528 49 45 5.2 10.4 0.00 0.53 0.53 94 1005.6
20260507000027 49 42 2.6 10.4 0.00 0.53 0.53 94 1005.3
20260506235642 50 20 6.1 7.8 0.04 0.53 0.53 93 1005.4
20260506235258 50 90 1.7 9.6 0.07 0.53 0.53 94 1005.3
20260506234644 50 52 1.7 11.3 0.13 0.53 0.53 93 1005.0
20260506234028 50 53 4.3 11.3 0.07 0.52 0.52 93 1005.0
20260506233527 50 342 3.5 8.7 0.10 0.51 0.51 93 1004.9
20260506233028 51 13 1.7 8.7 0.20 0.51 0.51 93 1004.8
20260506232527 51 77 7.0 7.8 0.06 0.49 0.49 92 1004.6
20260506232027 52 10 7.0 10.4 0.06 0.48 0.48 92 1004.5
20260506231643 53 52 4.3 10.4 0.06 0.48 0.48 91 1004.2
20260506231027 54 116 5.2 8.7 0.07 0.47 0.47 91 1004.0
20260506230528 54 21 3.5 9.6 0.10 0.47 0.47 91 1003.9
20260506230029 54 340 3.5 13.0 0.13 0.46 0.46 89 1003.6
20260506225529 54 347 3.5 17.4 0.00 0.45 0.45 89 1003.4
20260506225026 55 323 7.8 17.4 0.00 0.44 0.44 88 1003.1
20260506224758 56 290 11.3 15.6 0.00 0.44 0.44 89 1003.1
20260506224028 56 272 6.1 20.0 0.00 0.44 0.44 89 1002.8
20260506223528 57 285 13.0 20.0 0.04 0.44 0.44 88 1002.7
20260506223027 58 280 9.6 13.9 0.06 0.44 0.44 88 1002.6
20260506222642 59 278 12.2 13.0 0.10 0.44 0.44 89 1002.4
20260506222027 60 295 7.0 10.4 0.23 0.43 0.43 90 1002.4
20260506221529 60 270 7.0 10.4 0.00 0.41 0.41 90 1002.3
20260506221028 60 241 3.5 13.0 0.00 0.41 0.41 90 1002.1
20260506220527 61 197 5.2 13.0 0.00 0.41 0.41 90 1002.0
20260506220028 61 166 3.5 11.3 0.00 0.41 0.41 90 1002.1
20260506215642 61 210 7.8 11.3 0.00 0.41 0.41 90 1002.1
20260506215027 61 231 3.5 11.3 0.00 0.41 0.41 90 1002.1
20260506214529 60 200 7.0 11.3 0.00 0.41 0.41 90 1002.1
20260506214027 60 195 8.7 11.3 0.00 0.41 0.41 90 1002.0
20260506213642 60 201 7.8 11.3 0.00 0.41 0.41 90 1002.0
20260506213029 60 185 6.1 11.3 0.00 0.41 0.41 90 1002.0
20260506212527 60 199 4.3 9.6 0.00 0.41 0.41 91 1002.1
20260506212028 60 193 6.1 9.6 0.00 0.41 0.41 90 1002.1
20260506211643 60 198 7.0 8.7 0.00 0.41 0.41 90 1002.1
20260506211027 60 203 5.2 9.6 0.00 0.40 0.40 90 1002.1
20260506210643 60 214 7.0 8.7 0.00 0.40 0.40 90 1002.2
20260506210028 60 208 3.5 10.4 0.00 0.40 0.40 90 1002.2
20260506205528 60 208 5.2 8.7 0.00 0.40 0.40 90 1002.3
20260506205142 60 185 6.1 9.6 0.00 0.40 0.40 90 1002.3
20260506204644 60 200 7.0 9.6 0.00 0.40 0.40 90 1002.4
20260506204026 60 180 3.5 15.6 0.00 0.40 0.40 89 1002.4
20260506203528 60 218 13.0 14.8 0.00 0.40 0.40 90 1002.3
20260506203143 60 169 6.1 14.8 0.00 0.40 0.40 90 1002.3
20260506202642 60 195 7.0 13.9 0.00 0.40 0.40 90 1002.3
20260506202028 60 151 2.6 13.0 0.00 0.40 0.40 90 1002.3
20260506201528 60 230 9.6 13.0 0.00 0.40 0.40 90 1002.4
20260506201027 60 210 6.1 15.6 0.00 0.40 0.40 90 1002.5
20260506200642 60 203 12.2 15.6 0.00 0.40 0.40 90 1002.6
20260506200029 60 183 5.2 14.8 0.00 0.40 0.40 91 1002.6
20260506195643 60 199 8.7 16.5 0.00 0.40 0.40 91 1002.6
20260506195258 60 210 8.7 16.5 0.00 0.40 0.40 90 1002.6
20260506194529 60 201 8.7 14.8 0.00 0.40 0.40 90 1002.7
20260506194142 60 209 5.2 14.8 0.00 0.40 0.40 90 1002.7
20260506193527 60 193 7.8 14.8 0.00 0.39 0.39 90 1002.7
20260506193144 60 249 13.0 17.4 0.00 0.39 0.39 90 1002.8
20260506192642 60 206 13.9 18.2 0.00 0.39 0.39 90 1002.8
20260506192027 60 197 9.6 17.4 0.00 0.39 0.39 90 1002.9
20260506191528 60 224 7.8 13.9 0.00 0.39 0.39 90 1002.8
20260506191027 60 203 7.8 15.6 0.04 0.39 0.39 91 1002.8
20260506190642 60 203 8.7 15.6 0.04 0.39 0.39 90 1002.9
20260506190143 60 194 9.6 16.5 0.08 0.39 0.39 91 1002.9
20260506185529 60 214 7.0 16.5 0.13 0.39 0.39 91 1002.9
20260506185142 60 201 8.7 14.8 0.17 0.38 0.38 91 1003.0
20260506184528 60 229 7.8 14.8 0.14 0.36 0.36 92 1003.1
20260506184143 60 167 9.6 13.9 0.11 0.36 0.36 92 1003.0
20260506183528 60 196 5.2 8.7 0.07 0.34 0.34 93 1003.0
20260506183143 60 226 4.3 6.1 0.07 0.34 0.34 93 1003.0
20260506182527 60 216 2.6 4.3 0.05 0.33 0.33 93 1003.0
20260506182026 60 258 1.7 5.2 0.05 0.33 0.33 93 1003.0
20260506181529 60 191 2.6 5.2 0.04 0.32 0.32 93 1003.0
20260506181027 60 209 3.5 5.2 0.04 0.32 0.32 93 1003.1
20260506180528 60 227 3.5 5.2 0.05 0.31 0.31 93 1003.2
20260506180029 59 243 3.5 6.1 0.07 0.31 0.31 93 1003.2
20260506175643 59 229 3.5 6.1 0.07 0.31 0.31 93 1003.3
20260506175027 59 227 4.3 6.1 0.07 0.30 0.30 93 1003.4
20260506174529 59 205 3.5 7.0 0.07 0.30 0.30 93 1003.3
20260506174142 59 196 4.3 7.0 0.12 0.28 0.28 93 1003.4
20260506173528 59 136 2.6 7.0 0.24 0.28 0.28 92 1003.5
20260506173029 59 197 2.6 7.0 0.39 0.26 0.26 92 1003.7
20260506172527 59 196 4.3 7.8 0.16 0.23 0.23 91 1003.7
20260506172027 60 195 1.7 7.8 0.25 0.22 0.22 92 1003.7
20260506171644 60 207 2.6 8.7 0.17 0.20 0.20 92 1003.9
20260506171142 60 187 2.6 8.7 0.12 0.19 0.19 91 1003.7
20260506170643 60 164 4.3 8.7 0.16 0.18 0.18 91 1003.7
20260506170143 60 103 0.9 9.6 0.22 0.16 0.16 91 1003.9
20260506165528 60 168 3.5 9.6 0.17 0.15 0.15 91 1004.1
20260506165027 60 185 1.7 6.1 0.11 0.13 0.13 91 1004.3
20260506164529 60 164 0.9 5.2 0.12 0.12 0.12 91 1004.3
20260506164027 60 202 1.7 6.1 0.09 0.11 0.11 90 1004.3
20260506163527 60 195 5.2 7.8 0.12 0.10 0.10 90 1004.3
20260506163030 60 201 7.0 7.8 0.12 0.09 0.09 90 1004.4
20260506162757 60 209 6.1 14.8 0.11 0.09 0.09 89 1004.3
20260506162028 61 203 5.2 14.8 0.09 0.08 0.08 89 1004.5
20260506161529 61 210 0.9 10.4 0.10 0.07 0.07 89 1004.4
20260506161026 61 214 5.2 7.0 0.06 0.06 0.06 89 1004.5
20260506160642 61 197 3.5 6.1 0.00 0.05 0.05 89 1004.6
20260506160028 61 217 3.5 5.2 0.00 0.05 0.05 89 1004.6
20260506155528 61 226 4.3 6.1 0.00 0.04 0.04 89 1004.5
20260506155142 61 226 3.5 6.1 0.00 0.04 0.04 88 1004.5
20260506154643 61 235 0.9 3.5 0.00 0.04 0.04 88 1004.3
20260506154143 61 201 1.7 6.1 0.00 0.04 0.04 89 1004.4
20260506153527 61 190 2.6 6.1 0.00 0.04 0.04 88 1004.4
20260506153029 61 178 0.9 3.5 0.00 0.03 0.03 88 1004.4
20260506152528 61 184 1.7 5.2 0.00 0.03 0.03 88 1004.5
20260506152028 61 199 2.6 8.7 0.00 0.03 0.03 87 1004.7
20260506151528 61 199 5.2 8.7 0.00 0.03 0.03 86 1004.8
20260506151027 62 271 2.6 7.8 0.00 0.02 0.02 86 1004.9
20260506150642 62 201 4.3 7.8 0.04 0.02 0.02 85 1004.9
20260506150143 62 207 4.3 12.2 0.05 0.02 0.02 85 1005.0
20260506145642 62 202 5.2 12.2 0.05 0.02 0.02 85 1005.1
20260506145142 62 199 3.5 12.2 0.00 0.01 0.01 84 1005.1
20260506144644 62 173 7.8 12.2 0.00 0.01 0.01 83 1005.2
20260506144028 63 212 8.7 13.9 0.00 0.01 0.01 82 1005.2
20260506143528 63 187 7.0 13.9 0.00 0.00 0.00 80 1005.3
20260506143028 64 218 1.7 15.6 0.00 0.00 0.00 79 1005.2
20260506142643 64 198 6.1 15.6 0.00 0.00 0.00 78 1005.2
20260506142027 64 192 14.8 16.5 0.00 0.00 0.00 76 1005.2
20260506141529 64 190 4.3 19.1 0.00 0.00 0.00 76 1005.2
20260506141027 64 200 6.1 19.1 0.00 0.00 0.00 76 1005.1
20260506140528 64 208 3.5 8.7 0.00 0.00 0.00 78 1005.1
20260506140144 64 195 3.5 7.8 0.00 0.00 0.00 78 1004.9
20260506135643 64 194 2.6 7.8 0.00 0.00 0.00 78 1005.0
20260506135027 64 159 0.0 9.6 0.00 0.00 0.00 78 1004.8
20260506134528 64 143 0.0 9.6 0.00 0.00 0.00 78 1004.8
20260506134027 64 167 4.3 7.8 0.00 0.00 0.00 78 1004.8
20260506133528 64 181 3.5 11.3 0.00 0.00 0.00 78 1004.7
20260506133028 64 152 6.1 11.3 0.00 0.00 0.00 78 1004.6
20260506132643 64 98 2.6 10.4 0.00 0.00 0.00 78 1004.6
20260506132142 63 206 1.7 10.4 0.00 0.00 0.00 79 1004.7
20260506131529 63 73 2.6 7.0 0.00 0.00 0.00 79 1004.8
20260506131027 63 140 0.0 7.8 0.00 0.00 0.00 79 1004.8
20260506130642 62 129 4.3 7.8 0.00 0.00 0.00 79 1004.8
20260506130259 62 214 4.3 7.8 0.00 0.00 0.00 80 1004.8
20260506125527 62 143 3.5 7.8 0.00 0.00 0.00 80 1005.1
20260506125142 62 127 1.7 6.1 0.00 0.00 0.00 80 1005.1
20260506124645 62 197 1.7 5.2 0.00 0.00 0.00 80 1005.2
20260506124142 61 184 0.9 7.8 0.00 0.00 0.00 80 1005.3
20260506123528 61 239 1.7 9.6 0.00 0.00 0.00 80 1005.5
20260506123027 61 241 1.7 9.6 0.00 0.00 0.00 80 1005.5
20260506122528 61 111 2.6 10.4 0.00 0.00 0.00 80 1005.5
20260506122027 61 186 6.1 12.2 0.00 0.00 0.00 80 1005.6
20260506121529 61 95 0.9 12.2 0.00 0.00 0.00 80 1005.5
20260506121029 61 179 5.2 9.6 0.00 0.00 0.00 80 1005.5
20260506120528 61 174 5.2 9.6 0.00 0.00 0.00 79 1005.5
20260506120029 61 154 0.9 8.7 0.00 0.00 0.00 79 1005.5
20260506115527 61 141 5.2 8.7 0.00 0.00 0.00 79 1005.4
20260506115142 61 254 3.5 11.3 0.00 0.00 0.00 79 1005.4
20260506114027 61 85 1.7 11.3 0.00 0.00 0.00 79 1005.2
20260506113643 61 187 1.7 13.9 0.00 0.00 0.00 79 1005.2
20260506113143 61 174 7.0 13.9 0.00 0.00 0.00 79 1005.2
20260506112528 60 229 4.3 9.6 0.00 0.00 0.00 79 1004.8
20260506112027 60 169 4.3 13.9 0.00 0.00 0.00 79 1004.9
20260506111529 60 111 9.6 13.9 0.00 0.00 0.00 79 1005.0
20260506111143 60 272 1.7 13.0 0.00 0.00 0.00 79 1005.2
20260506110528 60 27 3.5 13.0 0.00 0.00 0.00 79 1005.1
20260506110029 60 181 2.6 13.0 0.00 0.00 0.00 79 1005.3
20260506105758 60 359 3.5 15.6 0.00 0.00 0.00 79 1005.3
20260506105027 60 138 0.9 15.6 0.00 0.00 0.00 79 1005.2
20260506104528 60 151 6.1 12.2 0.00 0.00 0.00 80 1005.2
20260506104027 59 206 7.8 10.4 0.00 0.00 0.00 81 1005.3
20260506103528 58 93 1.7 9.6 0.00 0.00 0.00 83 1005.1
20260506103143 58 144 2.6 8.7 0.00 0.00 0.00 85 1005.2
20260506102757 57 191 6.1 9.6 0.00 0.00 0.00 86 1005.1
20260506102027 55 198 4.3 9.6 0.00 0.00 0.00 90 1005.1
20260506101530 54 179 3.5 8.7 0.00 0.00 0.00 94 1005.1
20260506101027 53 195 7.0 7.0 0.00 0.00 0.00 95 1005.1
20260506100527 52 218 0.9 3.5 0.00 0.00 0.00 96 1005.1
20260506100029 51 236 2.6 2.6 0.00 0.00 0.00 96 1005.0
20260506095642 51 236 0.0 3.5 0.00 0.00 0.00 95 1004.9
20260506095028 51 236 0.0 3.5 0.00 0.00 0.00 95 1004.9
20260506094528 51 297 0.0 0.0 0.00 0.00 0.00 95 1004.9
20260506094142 51 297 0.0 1.7 0.00 0.00 0.00 95 1004.8
20260506093642 51 297 0.0 1.7 0.00 0.00 0.00 95 1004.8
20260506093144 51 297 1.7 2.6 0.00 0.00 0.00 95 1004.9
20260506092530 51 297 0.0 2.6 0.00 0.00 0.00 95 1005.0
20260506092257 51 297 0.9 2.6 0.00 0.00 0.00 94 1004.9
20260506091529 52 297 0.9 3.5 0.00 0.00 0.00 95 1004.8
20260506091142 51 297 0.9 3.5 0.00 0.00 0.00 94 1004.9
20260506090528 52 299 0.0 3.5 0.00 0.00 0.00 94 1004.9
20260506090144 52 238 0.0 0.0 0.00 0.00 0.00 94 1004.9
20260506085527 52 238 0.0 0.0 0.00 0.00 0.00 94 1005.1
20260506085142 52 238 0.0 0.0 0.00 0.00 0.00 94 1005.2
20260506084529 52 238 0.0 0.0 0.00 0.00 0.00 94 1005.3
20260506084027 53 238 0.0 0.0 0.00 0.00 0.00 94 1005.1
20260506083527 53 238 0.0 0.0 0.00 0.00 0.00 94 1005.1
20260506083029 53 238 0.0 0.0 0.00 0.00 0.00 94 1005.1
20260506082529 53 238 0.0 0.0 0.00 0.00 0.00 94 1005.2
20260506082027 53 238 0.0 0.0 0.00 0.00 0.00 94 1005.3
20260506081645 53 238 0.0 0.0 0.00 0.00 0.00 94 1005.2
20260506081027 53 238 0.0 0.0 0.00 0.00 0.00 93 1005.5
20260506080528 54 238 0.0 0.0 0.00 0.00 0.00 94 1005.4
20260506080143 54 238 0.0 0.0 0.00 0.00 0.00 94 1005.5
20260506073029 55 238 0.0 1.7 0.00 0.00 0.00 93 1005.6
20260506072527 55 238 0.9 1.7 0.00 0.00 0.00 93 1005.8
20260506072027 55 238 0.9 1.7 0.00 0.00 0.00 93 1005.8
20260506071528 55 238 0.9 3.5 0.00 0.00 0.00 93 1005.9
20260506071027 55 238 0.9 3.5 0.00 0.00 0.00 93 1005.9
20260506070642 55 214 2.6 3.5 0.00 0.00 0.00 93 1006.0
20260506062028 56 170 0.0 0.0 0.00 0.00 0.00 92 1005.9
20260506061528 56 170 0.0 0.0 0.00 0.00 0.00 92 1005.9
20260506061027 56 170 0.0 0.0 0.00 0.00 0.00 92 1006.0
20260506060643 56 170 0.0 1.7 0.00 0.00 0.00 92 1005.9
20260506060145 56 170 0.0 1.7 0.00 0.00 0.00 92 1006.0
20260506051142 57 169 0.0 0.0 0.00 0.00 0.00 92 1006.2
20260506050528 57 169 0.0 3.5 0.00 0.00 0.00 92 1006.5
20260506045027 58 125 0.0 0.0 0.00 0.00 0.00 90 1006.4
20260506044528 58 125 0.0 1.7 0.00 0.00 0.00 90 1006.4
20260506044027 58 251 0.0 2.6 0.00 0.00 0.00 91 1006.4
20260506043527 58 251 0.9 2.6 0.00 0.00 0.00 91 1006.3
20260506043028 58 251 0.9 3.5 0.00 0.00 0.00 91 1006.2
20260506042527 58 251 1.7 3.5 0.00 0.00 0.00 91 1006.1
20260506042028 58 251 1.7 2.6 0.00 0.00 0.00 91 1006.1
20260506041643 58 251 1.7 2.6 0.00 0.00 0.00 91 1006.1
20260506041027 59 212 1.7 2.6 0.00 0.00 0.00 91 1006.1
20260506040527 59 212 0.0 3.5 0.00 0.00 0.00 91 1006.0
20260506040028 59 212 1.7 3.5 0.00 0.00 0.00 91 1006.1
20260506035528 59 160 0.0 1.7 0.00 0.01 0.01 90 1005.9
20260506035027 59 160 0.0 5.2 0.00 0.01 0.01 90 1006.0
20260506034530 59 135 0.9 5.2 0.00 0.01 0.01 90 1005.9
20260506034142 59 154 1.7 2.6 0.00 0.01 0.01 89 1005.9
20260506033528 59 286 1.7 2.6 0.00 0.01 0.01 90 1006.1
20260506033028 59 285 0.0 0.0 0.00 0.01 0.01 90 1006.0
20260506032528 59 285 0.0 0.0 0.00 0.01 0.01 89 1005.9
20260506032142 59 285 0.0 0.0 0.00 0.01 0.01 90 1005.8
20260506031644 60 285 0.0 0.0 0.00 0.01 0.01 90 1005.8
20260506031143 60 285 0.0 0.0 0.00 0.01 0.01 89 1005.8
20260506030527 60 319 0.0 0.0 0.00 0.01 0.01 89 1005.8
20260506030029 59 320 0.0 0.0 0.00 0.01 0.01 89 1005.7
20260506025643 60 316 0.0 0.9 0.00 0.01 0.01 89 1005.9
20260506025143 60 316 0.0 0.9 0.00 0.01 0.01 89 1006.0
20260506024528 60 315 0.0 2.6 0.00 0.01 0.01 89 1005.9
20260506024028 60 316 0.0 2.6 0.00 0.01 0.01 89 1005.9
20260506023527 60 316 1.7 4.3 0.00 0.01 0.01 89 1005.9
20260506023028 60 324 3.5 4.3 0.00 0.01 0.01 89 1006.0
20260506022642 60 255 1.7 2.6 0.00 0.01 0.01 89 1006.0
20260506022027 60 174 0.0 1.7 0.00 0.01 0.01 88 1006.1
20260506021529 60 298 0.0 0.0 0.00 0.01 0.01 88 1006.1
20260506021142 60 299 0.0 0.0 0.00 0.01 0.01 88 1006.2
20260506020527 60 299 0.0 0.9 0.00 0.01 0.01 87 1006.1
20260506020027 60 299 0.0 0.9 0.00 0.01 0.01 87 1006.1